Alexandria, MN

3:06 PM CST on December 06, 2019 (GMT -0600)
Chandler

Weather History for KAXN - October, 2019

Change the Weather History Date:

Tuesday, October 1, 2019

  Actual Average Record
Temperature  
Mean Temperature 49 °F -  
Max Temperature 55 °F 64 °F 85 °F (1951)
Min Temperature 43 °F 42 °F 26 °F (1974)
Degree Days  
Heating Degree Days 16    
Moisture  
Dew Point 41 °F    
Average Humidity 80    
Maximum Humidity 93    
Minimum Humidity 64    
Precipitation  
Precipitation 0.02 in - - ()
Sea Level Pressure  
Sea Level Pressure 30.09 in    
Wind  
Wind Speed 11 mph ()    
Max Wind Speed 18 mph    
Max Gust Speed 25 mph    
Visibility 10.0 miles    
Events Rain    
Averages and records for this station are not official NWS values.
T = Trace of Precipitation, MM = Missing Value Source: Averaged Metar Reports

Daily Weather History Graph

Daily Weather History Graph

Search for Another Location

Airport or City:

Astronomy

Oct. 01, 2019 Rise Set
Actual Time 7:19 AM CDT 7:02 PM CDT
Civil Twilight 6:49 AM CDT 7:31 PM CDT
Nautical Twilight 6:15 AM CDT 8:06 PM CDT
Astronomical Twilight 5:40 AM CDT 8:41 PM CDT
Moon 10:45 AM CDT (10/1) 9:05 PM CDT (10/1)
Length of Visible Light 12h 41m
Length of Day
11h 42m
Waxing Crescent, 12% of the Moon is Illuminated
Oct 1
Waxing Crescent
Oct 5
First Quarter
Oct 13
Full
Oct 21
Last Quarter
Oct 27
New

Hourly Weather History & Observations

Time (CDT) Temp. Windchill Dew Point Humidity Pressure Visibility Wind Dir Wind Speed Gust Speed Precip Events Conditions
12:53 AM 48.0 °F - 45.0 °F 89% 29.97 in 10.0 mi North 11.5 mph 21.9 mph N/A   Overcast
1:53 AM 46.9 °F - 44.1 °F 90% 29.97 in 10.0 mi NNW 15.0 mph - N/A   Overcast
2:53 AM 46.9 °F - 45.0 °F 93% 30.03 in 10.0 mi NNW 6.9 mph - N/A   Overcast
3:53 AM 46.0 °F 41.0 °F 44.1 °F 93% 30.06 in 10.0 mi NW 10.4 mph - 0.01 in   Overcast
4:37 AM 46.0 °F 41.0 °F 43.0 °F 89% 30.06 in 10.0 mi NNW 10.4 mph - N/A   Overcast
4:53 AM 46.0 °F 40.6 °F 43.0 °F 89% 30.06 in 10.0 mi NNW 11.5 mph - N/A   Overcast
5:53 AM 45.0 °F 38.9 °F 41.0 °F 86% 30.06 in 10.0 mi NNW 12.7 mph - N/A   Overcast
6:53 AM 44.1 °F 36.8 °F 39.9 °F 85% 30.05 in 10.0 mi North 16.1 mph 23.0 mph N/A   Scattered Clouds
7:53 AM 44.1 °F 37.7 °F 39.0 °F 82% 30.09 in 10.0 mi North 12.7 mph 18.4 mph N/A   Mostly Cloudy
8:24 AM 43.0 °F 37.2 °F 39.9 °F 89% 30.09 in 10.0 mi NNW 10.4 mph - 0.00 in   Overcast
8:34 AM 43.0 °F 36.8 °F 39.9 °F 89% 30.06 in 10.0 mi North 11.5 mph - 0.01 in Rain Light Rain
8:53 AM 43.0 °F 37.2 °F 39.9 °F 89% 30.09 in 10.0 mi NNW 10.4 mph 21.9 mph 0.01 in   Overcast
9:33 AM 44.1 °F 38.1 °F 41.0 °F 89% 30.07 in 10.0 mi North 11.5 mph 20.7 mph N/A   Overcast
9:53 AM 45.0 °F 38.9 °F 41.0 °F 86% 30.11 in 10.0 mi North 12.7 mph - N/A   Overcast
10:04 AM 46.0 °F 40.6 °F 42.1 °F 86% 30.09 in 10.0 mi North 11.5 mph - N/A   Overcast
10:43 AM 46.9 °F - 42.1 °F 83% 30.09 in 10.0 mi NNW 8.1 mph - N/A   Overcast
10:53 AM 46.0 °F 41.0 °F 42.1 °F 86% 30.13 in 10.0 mi NNW 10.4 mph - N/A   Overcast
11:44 AM 48.9 °F - 42.1 °F 77% 30.09 in 10.0 mi North 10.4 mph - N/A   Overcast
11:53 AM 48.9 °F - 42.1 °F 77% 30.12 in 10.0 mi North 11.5 mph - N/A   Overcast
12:53 PM 50.0 °F - 43.0 °F 77% 30.12 in 10.0 mi North - - N/A   Overcast
1:14 PM 51.1 °F - 43.0 °F 74% 30.09 in 10.0 mi North 9.2 mph - N/A   Overcast
1:31 PM 51.1 °F - 43.0 °F 74% 30.08 in 10.0 mi North 11.5 mph - N/A   Mostly Cloudy
1:53 PM 53.1 °F - 43.0 °F 69% 30.11 in 10.0 mi North 9.2 mph - N/A   Mostly Cloudy
2:53 PM 55.0 °F - 43.0 °F 64% 30.09 in 10.0 mi North 15.0 mph 19.6 mph N/A   Partly Cloudy
3:53 PM 53.1 °F - 41.0 °F 64% 30.10 in 10.0 mi North 10.4 mph - N/A   Mostly Cloudy
4:53 PM 53.1 °F - 41.0 °F 64% 30.09 in 10.0 mi North 9.2 mph - N/A   Clear
5:53 PM 52.0 °F - 41.0 °F 66% 30.09 in 10.0 mi NNE 10.4 mph - N/A   Partly Cloudy
6:53 PM 51.1 °F - 39.9 °F 66% 30.10 in 10.0 mi NNE 10.4 mph - N/A   Clear
7:53 PM 50.0 °F - 39.9 °F 68% 30.10 in 10.0 mi NNE 15.0 mph - N/A   Mostly Cloudy
8:53 PM 46.9 °F - 39.9 °F 77% 30.11 in 10.0 mi NNE 16.1 mph 23.0 mph N/A   Mostly Cloudy
9:53 PM 45.0 °F 37.4 °F 39.0 °F 80% 30.14 in 10.0 mi NNE 18.4 mph 25.3 mph N/A   Mostly Cloudy
10:53 PM 43.0 °F 35.1 °F 37.9 °F 82% 30.15 in 10.0 mi North 17.3 mph 24.2 mph N/A   Mostly Cloudy
11:01 PM 44.1 °F 37.1 °F 37.9 °F 79% 30.12 in 10.0 mi NNE 15.0 mph 24.2 mph N/A   Mostly Cloudy
11:53 PM 43.0 °F 36.0 °F 37.0 °F 80% 30.16 in 10.0 mi NNE 13.8 mph 20.7 mph N/A   Overcast